Weather History for Burnet, TX

Change the Weather History Date:

Thursday, September 19, 2013

  Actual Average Record
Temperature  
Mean Temperature 79 °F -  
Max Temperature 88 °F 85 °F 93 °F (1997)
Min Temperature 71 °F 65 °F 57 °F (2006)
Cooling Degree Days 14    
Growing Degree Days 29 (Base 50)    
Moisture  
Dew Point 71 °F    
Average Humidity 86    
Maximum Humidity 100    
Minimum Humidity 53    
Precipitation  
Precipitation 1.40 in - - ()
Sea Level Pressure  
Sea Level Pressure 29.93 in    
Wind  
Wind Speed 5 mph (ESE)    
Max Wind Speed 16 mph    
Max Gust Speed 28 mph    
Visibility 8 miles    
Events Fog , Rain , Thunderstorm    
Averages and records for this station are not official NWS values.
T = Trace of Precipitation, MM = Missing Value Source: NWS Daily Summary

Daily Weather History Graph

Daily Weather History Graph

Search for Another Location

Airport:

Trip Planner

Search our weather history database for the weather conditions in past years. The results will help you decide how hot, cold, wet, or windy it might be!

Date:

Astronomy

Sep. 19, 2013 Rise Set
Actual Time 7:19 AM CDT 7:33 PM CDT
Civil Twilight 6:55 AM CDT 7:57 PM CDT
Nautical Twilight 6:27 AM CDT 8:25 PM CDT
Astronomical Twilight 5:59 AM CDT 8:53 PM CDT
Moon 7:37 PM CDT (9/19) 7:26 AM CDT (9/19)
Length of Visible Light 13h 01m
Length of Day
12h 13m
Full, 100% of the Moon is Illuminated
Sep 19
Full
Sep 26
Last Quarter
Oct 4
New
Oct 11
First Quarter
Oct 18
Full

Hourly Weather History & Observations

Time (CDT) Temp. Heat Index Dew Point Humidity Pressure Visibility Wind Dir Wind Speed Gust Speed Precip Events Conditions
12:53 AM 77.0 °F - 68.0 °F 74% 29.94 in 10.0 mi South 4.6 mph - N/A   Clear
1:53 AM 75.9 °F - 69.1 °F 79% 29.93 in 10.0 mi South 3.5 mph - N/A   Clear
2:53 AM 75.0 °F - 69.1 °F 82% 29.93 in 10.0 mi South 4.6 mph - N/A   Clear
3:53 AM 73.9 °F - 69.1 °F 85% 29.92 in 10.0 mi SSE 3.5 mph - N/A   Clear
4:45 AM 73.9 °F - 70.0 °F 87% 29.98 in 10.0 mi Variable 3.5 mph - N/A   Mostly Cloudy
4:53 AM 73.9 °F - 70.0 °F 87% 29.92 in 10.0 mi Calm Calm - N/A   Mostly Cloudy
5:16 AM 73.9 °F - 70.0 °F 87% 29.97 in 10.0 mi Calm Calm - N/A   Mostly Cloudy
5:29 AM 73.9 °F - 70.0 °F 87% 29.97 in 10.0 mi SSE 3.5 mph - N/A   Mostly Cloudy
5:53 AM 73.9 °F - 70.0 °F 87% 29.92 in 10.0 mi Calm Calm - N/A   Mostly Cloudy
6:44 AM 75.0 °F - 71.1 °F 87% 29.98 in 10.0 mi Variable 3.5 mph - N/A   Mostly Cloudy
6:53 AM 75.0 °F - 71.1 °F 87% 29.92 in 10.0 mi SE 3.5 mph - N/A   Mostly Cloudy
7:32 AM 75.0 °F - 72.0 °F 90% 29.99 in 10.0 mi Variable 3.5 mph - N/A   Mostly Cloudy
7:44 AM 75.0 °F - 72.0 °F 90% 29.99 in 9.0 mi ESE 4.6 mph - N/A   Mostly Cloudy
7:53 AM 73.9 °F - 72.0 °F 93% 29.94 in 9.0 mi ESE 4.6 mph - N/A   Mostly Cloudy
7:55 AM 73.9 °F - 72.0 °F 93% 29.99 in 9.0 mi ESE 4.6 mph - N/A   Mostly Cloudy
8:23 AM 75.0 °F - 72.0 °F 90% 30.00 in 10.0 mi ESE 4.6 mph - N/A   Overcast
8:53 AM 75.9 °F - 72.0 °F 87% 29.95 in 10.0 mi ESE 4.6 mph - N/A   Mostly Cloudy
9:10 AM 75.9 °F - 72.0 °F 87% 30.01 in 10.0 mi ESE 4.6 mph - N/A   Mostly Cloudy
9:53 AM 75.9 °F - 72.0 °F 87% 29.96 in 10.0 mi East 4.6 mph - N/A   Overcast
10:04 AM 77.0 °F - 72.0 °F 84% 30.02 in 10.0 mi East 5.8 mph - N/A   Overcast
10:24 AM 77.0 °F - 72.0 °F 84% 30.02 in 10.0 mi East 4.6 mph - N/A   Overcast
10:53 AM 79.0 °F - 71.1 °F 77% 29.96 in 10.0 mi East 4.6 mph - N/A   Mostly Cloudy
11:53 AM 81.0 °F 84.9 °F 71.1 °F 72% 29.96 in 10.0 mi East 9.2 mph - 0.00 in   Overcast
12:33 PM 79.0 °F - 73.0 °F 82% 30.01 in 6.0 mi SE 3.5 mph - 0.00 in Rain Light Rain
12:53 PM 81.0 °F 84.9 °F 71.1 °F 72% 29.94 in 10.0 mi WSW 3.5 mph - 0.00 in   Mostly Cloudy
1:53 PM 86.0 °F 90.1 °F 69.1 °F 57% 29.90 in 10.0 mi ESE 9.2 mph - N/A   Mostly Cloudy
2:53 PM 86.0 °F 90.1 °F 69.1 °F 57% 29.88 in 10.0 mi ENE 6.9 mph - 0.00 in Rain Light Rain
3:53 PM 87.1 °F 90.6 °F 68.0 °F 53% 29.85 in 10.0 mi ESE 8.1 mph - 0.00 in   Scattered Clouds
4:53 PM 81.0 °F 85.8 °F 73.0 °F 77% 29.84 in 10.0 mi Calm Calm - 0.01 in   Partly Cloudy
5:53 PM 84.0 °F 89.0 °F 71.1 °F 65% 29.83 in 10.0 mi ESE 3.5 mph - N/A   Partly Cloudy
6:53 PM 84.0 °F 89.0 °F 71.1 °F 65% 29.83 in 10.0 mi NE 4.6 mph - N/A   Mostly Cloudy
7:53 PM 80.1 °F 83.8 °F 72.0 °F 76% 29.85 in 10.0 mi ENE 8.1 mph - N/A   Scattered Clouds
8:12 PM 80.1 °F 83.2 °F 70.0 °F 71% 29.90 in 10.0 mi ENE 11.5 mph 17.3 mph N/A Thunderstorm Mostly Cloudy
8:31 PM 77.0 °F - 72.0 °F 84% 29.94 in 1.2 mi ESE 16.1 mph 27.6 mph 0.28 in Rain , Thunderstorm Heavy Rain
8:36 PM 73.9 °F - 72.0 °F 93% 29.94 in 0.5 mi ESE 10.4 mph 27.6 mph 0.62 in Fog , Rain , Thunderstorm Heavy Rain
8:40 PM 73.0 °F - 72.0 °F 96% 29.93 in 0.5 mi East 8.1 mph 23.0 mph 0.71 in Fog , Rain Heavy Rain
8:43 PM 73.0 °F - 72.0 °F 96% 29.93 in 0.8 mi East 6.9 mph - 0.74 in Rain , Thunderstorm Heavy Thunderstorms and Rain
8:46 PM 73.9 °F - 72.0 °F 93% 29.93 in 1.5 mi East 8.1 mph - 0.76 in Rain , Thunderstorm Heavy Thunderstorms and Rain
8:50 PM 73.4 °F - 71.6 °F 94% 29.93 in 3.0 mi ESE 9.2 mph - 0.76 in Rain , Thunderstorm Light Thunderstorms and Rain
8:53 PM 73.0 °F - 71.1 °F 93% 29.88 in 5.0 mi ESE 8.1 mph - 0.76 in Rain , Thunderstorm Light Thunderstorms and Rain
8:58 PM 73.9 °F - 71.1 °F 91% 29.93 in 10.0 mi SE 9.2 mph - 0.00 in Rain , Thunderstorm Light Rain
9:02 PM 73.9 °F - 71.1 °F 91% 29.94 in 10.0 mi SE 8.1 mph - 0.00 in Rain , Thunderstorm Light Rain
9:11 PM 73.0 °F - 72.0 °F 96% 29.94 in 2.0 mi ESE 10.4 mph - 0.12 in Rain , Thunderstorm Heavy Rain
9:19 PM 73.0 °F - 72.0 °F 96% 29.94 in 3.0 mi East 10.4 mph - 0.12 in Rain , Thunderstorm Light Rain
9:29 PM 73.0 °F - 71.1 °F 93% 29.95 in 2.5 mi Calm Calm - 0.19 in Rain Rain
9:32 PM 72.0 °F - 71.1 °F 97% 29.94 in 0.8 mi Calm Calm - 0.37 in Rain Heavy Rain
9:41 PM 72.0 °F - 71.1 °F 97% 29.93 in 1.0 mi Variable 4.6 mph - 0.54 in Rain Light Rain
9:44 PM 72.0 °F - 71.1 °F 97% 29.94 in 2.0 mi Variable 4.6 mph - 0.56 in Rain Light Rain
9:51 PM 71.6 °F - 71.6 °F 100% 29.95 in 2.5 mi West 4.6 mph - 0.63 in Rain Light Rain
9:53 PM 72.0 °F - 71.1 °F 97% 29.90 in 2.5 mi WNW 4.6 mph - 0.63 in Rain Light Rain
9:55 PM 72.0 °F - 71.1 °F 97% 29.95 in 3.0 mi NNW 4.6 mph - 0.00 in Rain , Thunderstorm Light Rain
10:08 PM 72.0 °F - 70.0 °F 93% 29.94 in 10.0 mi ENE 10.4 mph - 0.00 in Rain , Thunderstorm Light Rain
10:43 PM 73.0 °F - 70.0 °F 90% 29.94 in 10.0 mi ENE 5.8 mph - 0.00 in Rain Light Rain
10:53 PM 73.0 °F - 71.1 °F 93% 29.88 in 10.0 mi NE 4.6 mph - 0.00 in   Overcast
11:53 PM 73.9 °F - 72.0 °F 93% 29.87 in 10.0 mi Calm Calm - N/A   Overcast